www.pogodaiklimat.ru

ПОГОДА в Савунге, AK

  • Прогноз погоды в Савунге
  • Монитор погоды в Савунге
  • Климат в Савунге

АРХИВ ПОГОДЫ в Савунге

Время (UTC), дата Ветер
(напр.,м/с)
 
Видим.   Явления Облачность Т
(С)
Тd
(С)
f
(%)
Тe
(С)
Тes
(С)
Комфортность

P
(гПа)

Po
(гПа)
Тmin
(С)
Tmax
(С)
R
(мм)
SD
(см)
05:12 24.03 В  14 км  неопределенные осадки  10/10 270 м  -1.0  -2.0  93  -9  -9      995.3         
05:29 24.03 В  16 км    10/10 270 м  -1.0  -2.0  93  -9  -9      995.3         
05:56 24.03 В  13 км    10/10 210 м  -1.1  -1.7  96  -9  -9    997.3  995.3         
07:39 24.03 В  4 км  слабый снег, дымка  10/10 90 м  0.0  -1.0  93  -8  -8      993.9         
07:50 24.03 В  6 км  слабый снег, дымка  10/10 150 м  0.0  -1.0  93  -8  -8      993.6         
07:56 24.03 В  13 км  слабый снег  10/10 150 м  0.0  -0.6  96  -9  -9    995.9  993.6         
08:53 24.03 В  14 км  слабый дождь  10/10 270 м  +1.0  -1.0  86  -7  -7      993.6         
08:56 24.03 В  14 км  слабый дождь  10/10 270 м  0.0  -0.6  96  -9  -9    995.7  993.6         
09:16 24.03 В  9
{12} 
16 км  неопределенные осадки  10/10 300 м  0.0  -1.0  93  -9  -9      993.3         
09:26 24.03 В  9
{12} 
16 км  неопределенные осадки  10/10 240 м  0.0  -1.0  93  -8  -8      993.3         
10:56 24.03 ЮВ  10
{13} 
13 км  слабый снег  8/8 450 м  0.0  -1.7  88  -9  -9    995.1  992.9  -1.1  +0.6     
11:33 24.03 ЮВ  10
{13} 
4 км  слабый снег, дымка  10/8 270 м
[средняя] 
-1.0  -2.0  93  -10  -10      992.9         
11:41 24.03 ЮВ  10
{13} 
5 км  слабый снег, дымка  8/8 270 м  -1.0  -2.0  93  -10  -10      992.9         
12:27 24.03 ЮВ  11
{13} 
4 км  слабый снег, дымка  10/10 510 м  -1.0  -2.0  93  -11  -11      992.6         
12:38 24.03 ЮВ  11
{13} 
3 км  слабый снег, дымка  10/10 600 м  -1.0  -2.0  93  -10  -10      992.2         
12:45 24.03 ЮВ  10
{13} 
2 км  слабый снег, дымка  10/10 540 м  -1.0  -2.0  93  -10  -10      992.2         
13:36 24.03 В  10  5 км  слабый снег, дымка  10/10 570 м  -1.0  -2.0  93  -10  -10      991.6         
14:07 24.03 ЮВ  13
{15} 
1 км  слабый снег, дымка  10/10 450 м  -1.0  -2.0  93  -11  -11      991.2         
14:23 24.03 ЮВ  13
{16} 
800 м  снег, переохлажденный туман  10/10 600 м  -1.0  -1.0  100  -11  -11      991.2         
14:56 24.03 ЮВ  13
{16} 
800 м  снег, переохлажденный туман  10/10 480 м  -0.6  -1.1  96  -11  -11    992.9  990.9         
15:04 24.03 ЮВ  13
{15} 
1 км  слабый снег, дымка  10/10 480 м  -1.0  -1.0  100  -11  -11      990.9         
15:56 24.03 ЮВ  13  800 м  слабый снег, переохлажденный туман  5/5 270 м
[средняя] 
-1.1  -1.7  96  -11  -11    992.4  990.2         
16:26 24.03 ЮВ  11  1 км  слабый снег, дымка  8/2 240 м
[средняя] 
-1.0  -2.0  93  -10  -10      990.9         
16:47 24.03 ЮВ  10  2 км  слабый снег, дымка  10/8 300 м
[средняя] 
-1.0  -1.0  100  -10  -10      990.9         
16:56 24.03 ЮВ  10  3 км  слабый снег, дымка  10/10 300 м  -0.6  -1.1  96  -10  -10    993.1  990.9  -1.1  0.0     
17:35 24.03 Ю  4 км  слабый снег, дымка  10/8 240 м
[средняя] 
0.0  -1.0  93  -8  -8      991.2         
17:44 24.03 Ю  3 км  слабый снег, дымка  10/8 300 м
[средняя] 
0.0  -1.0  93  -8  -8      990.9         
17:56 24.03 Ю  10  2 км  слабый снег, дымка  8/8 180 м  0.0  -1.1  92  -9  -9    993.3  991.2         
18:06 24.03 Ю  10  2 км  слабый снег, дымка  8/8 240 м  0.0  -1.0  93  -9  -9      991.2         
18:56 24.03 Ю  10  11 км    10/10 840 м  +0.6  -1.1  88  -8  -8    994.3  992.2         
19:24 24.03 Ю  10  10 км  дымка  5/5 780 м  +1.0  -1.0  86  -7  -7      992.6         
19:56 24.03 Ю  11  6 км  дымка  8/8 960 м  +0.6  -1.1  88  -8  -8    995.0  992.9         
20:56 24.03 Ю  11  11 км  слабый дождь  8/5 720 м
[средняя] 
+1.1  -0.6  88  -8  -8    995.8  993.6         
21:16 24.03 Ю  11  13 км    8/5 210 м
[средняя] 
+1.0  -1.0  86  -8  -8      993.9         
21:32 24.03 Ю  11  11 км    8/8 210 м
[средняя] 
+2.0  -1.0  80  -6  -6      994.3         
21:56 24.03 Ю  11  8 км  дымка  8/8 210 м
[средняя] 
+1.7  -0.6  85  -7  -7    996.6  994.3         
22:03 24.03 Ю  11  8 км  дымка  8/5 210 м
[средняя] 
+2.0  -1.0  80  -6  -6      994.6         
23:40 24.03 Ю  11  10 км  слабый дождь, дымка  10/10 600 м  +1.0  -1.0  86  -8  -8      996.3         
23:56 24.03 Ю  11  8 км  слабый дождь, дымка  10/10 660 м  +1.1  -0.6  88  -7  -7    998.7  996.6         
00:56 25.03 Ю  10
{13} 
13 км    10/10 1410 м  +1.1  -0.6  88  -7  -7    999.3  997.0         
01:21 25.03 Ю  10  13 км    8/8 840 м  +1.0  -1.0  86  -7  -7      997.3         
01:56 25.03 Ю  11 км    5/5 270 м  +1.1  -0.6  88  -7  -7    1000.2  998.0         
02:56 25.03 Ю  10  13 км    10/10 1260 м  +1.1  -0.6  88  -7  -7    1001.0  998.7         
03:18 25.03 Ю  10  11 км    10/10 240 м  +1.0  -1.0  86  -7  -7      999.0         
03:53 25.03 Ю  14 км  неопределенные осадки  8/8 870 м  +1.0  -1.0  86  -7  -7      999.7         
03:56 25.03 Ю  10  14 км  неопределенные осадки  8/8 870 м  +1.1  -1.1  85  -7  -7    1001.8  999.7         
04:33 25.03 Ю  10  10 км  дымка  5/5 300 м  +1.0  -1.0  86  -7  -7      1000.0         
04:56 25.03 Ю  9
{13} 
11 км  слабый дождь  8/8 720 м  +1.1  -0.6  88  -7  -7    1002.7  1000.4  +0.6  +1.7     

 

Местоположение метеостанции Savoonga Airport: широта 63.6833 долгота -170.5000 высота над уровнем моря 16 м.

В архиве по умолчанию представлена погода в Савунге за последние 1-2 суток. Обновление информации о фактической погоде в базе происходит ежечасно! Архивные данные за месяц целиком и за предыдущие месяцы Вы можете получить, выбрав интересующий диапазон дат из раскрывающегося списка и нажав кнопку "Ввод!".

Внимание! Архив погоды МЕТАР в базе сайта хранится не более 60 дней. Нет смысла пытаться выбрать более раннюю дату.

Внимание! Время в таблицах - всемирное. Для получения местного времени необходимо прибавить поправку, которая в Савунге равна -9 ч.

Ветер - указаны скорость ветра в м/с и направление, откуда дует ветер: С - северный, СВ - северо-восточный, В - восточный, ЮВ - юго-восточный, Ю - южный, ЮЗ - юго-западный, З - западный, СЗ - северо-западный.
Видимость - горизонтальная дальность видимости в метрах или километрах. При видимости от 1 до 10 км при отсутствии осадков обычно наблюдается дымка, при ухудшении видимости до 1 км и менее - туман. В сухую погоду видимость может ухудшаться дымом, пылью или мглою.
Атмосферные явления - указаны явления, наблюдавшиеся в указанный момент времени.
Облачность - указаны через наклонную черту верхняя и нижняя облачность в баллах и высота нижней границы облаков в метрах. Внимание: облачность, как и прочие метеорологические величины в США измеряются автоматическими метеостанциями. Указанные значения в баллах носят условный характер и показывают процент времени, в течение которого, в среднем, лазерный луч высотомера отражался от облаков обратно.
T - Температура воздуха - температура, измеренная на высоте 2 м над землей.
Td - Температура точки росы - температура, при понижении до которой содержащийся в воздухе водяной пар достигнет насыщения.
f - Относительная влажность воздуха - влажноcть воздуха, измеренная на высоте 2 м над землей.
Te - Эффективная температура - температура, которую ощущает одетый по сезону человек в тени. Характеристика душности погоды. При расчете учитывается влияние влажности воздуха и скорости ветра на теплоощущения человека.
Tes - Эффективная температура на солнце - температура, которую ощущает человек, с поправкой на солнечный нагрев. Характеристика знойности погоды. Зависит от высоты солнца над горизонтом, облачности и скорости ветра. Ночью, в пасмурную погоду, а также при ветре 12 м/с и более поправка равна нулю.
P - Атмосферное давление - приведенное к уровню моря атмосферное давление.
Po - Атмосферное давление - измеренное на уровне метеостанции атмосферное давление.
Tmin - Минимальная температура - минимум температуры воздуха на высоте 2 м над землей.
Tmax - Максимальная температура - максимум температуры воздуха на высоте 2 м над землей.
R - Количество осадков - Количество выпавших осадков за 3 или 6 часов, мм.
SD - Снежный покров - Высота снежного покрова, см.